�������l�o���
Date,Time,MP-1(��Sv/h),MP-2(��Sv/h),MP-3(��Sv/h),MP-4(��Sv/h),MP-5(��Sv/h),MP-6(��Sv/h),MP-7(��Sv/h),MP-8(��Sv/h),����,����(m/s),���J
2019/09/09,00:00,0.759,1.070,0.739,1.310,0.977,0.429,0.743,0.700,���쓌,2.6,�L
2019/09/09,00:10,0.760,1.068,0.738,1.309,0.981,0.431,0.742,0.702,�쓌,2.2,�L
2019/09/09,00:20,0.755,1.067,0.737,1.311,0.978,0.428,0.744,0.701,�쓌,3.0,��
2019/09/09,00:30,0.757,1.069,0.737,1.310,0.978,0.430,0.743,0.701,�쓌,3.5,��
2019/09/09,00:40,0.757,1.067,0.736,1.311,0.978,0.430,0.744,0.702,�쓌,3.0,��
2019/09/09,00:50,0.756,1.067,0.738,1.312,0.980,0.429,0.745,0.699,�쓌,3.0,��
2019/09/09,01:00,0.757,1.067,0.738,1.310,0.978,0.430,0.743,0.700,�쓌,4.0,��
2019/09/09,01:10,0.757,1.067,0.737,1.308,0.977,0.430,0.745,0.700,�쓌,4.1,�L
2019/09/09,01:20,0.757,1.067,0.737,1.311,0.981,0.430,0.744,0.701,���쓌,3.7,�L
2019/09/09,01:30,0.759,1.068,0.737,1.311,0.977,0.431,0.744,0.701,�쓌,4.7,�L
2019/09/09,01:40,0.758,1.066,0.738,1.311,0.978,0.429,0.743,0.700,�쓌,4.0,�L
2019/09/09,01:50,0.759,1.065,0.737,1.309,0.978,0.430,0.743,0.700,�쓌,5.3,��
2019/09/09,02:00,0.757,1.067,0.738,1.310,0.979,0.430,0.742,0.700,�쓌,5.0,��
2019/09/09,02:10,0.759,1.066,0.736,1.308,0.976,0.427,0.745,0.701,�쓌,4.9,��
2019/09/09,02:20,0.759,1.067,0.737,1.311,0.976,0.427,0.744,0.700,�쓌,4.6,��
2019/09/09,02:30,0.758,1.064,0.737,1.310,0.977,0.429,0.744,0.700,���쓌,4.4,��
2019/09/09,02:40,0.759,1.063,0.735,1.310,0.977,0.427,0.742,0.699,�쓌,5.3,��
2019/09/09,02:50,0.756,1.064,0.735,1.309,0.976,0.429,0.743,0.700,�쓌,5.1,��
2019/09/09,03:00,0.759,1.062,0.736,1.310,0.976,0.428,0.745,0.701,�쓌,5.7,��
2019/09/09,03:10,0.757,1.066,0.737,1.310,0.975,0.428,0.744,0.701,�쓌,6.2,��
2019/09/09,03:20,0.757,1.063,0.738,1.308,0.976,0.428,0.744,0.701,�쓌,6.6,��
2019/09/09,03:30,0.758,1.064,0.737,1.309,0.977,0.427,0.743,0.701,�쓌,6.8,��
2019/09/09,03:40,0.757,1.063,0.737,1.309,0.976,0.427,0.743,0.699,���쓌,7.3,��
2019/09/09,03:50,0.757,1.064,0.735,1.309,0.976,0.427,0.742,0.700,���쓌,7.5,��
2019/09/09,04:00,0.757,1.066,0.739,1.308,0.976,0.426,0.743,0.700,���쓌,8.4,��
2019/09/09,04:10,0.757,1.067,0.737,1.310,0.975,0.427,0.743,0.701,���쓌,7.9,��
2019/09/09,04:20,0.757,1.066,0.736,1.311,0.976,0.427,0.742,0.700,���쓌,7.9,��
2019/09/09,04:30,0.756,1.064,0.738,1.309,0.975,0.426,0.743,0.699,���쓌,8.5,��
2019/09/09,04:40,0.754,1.065,0.737,1.309,0.976,0.426,0.744,0.701,���쓌,8.9,��
2019/09/09,04:50,0.757,1.065,0.736,1.307,0.977,0.426,0.742,0.701,���쓌,9.3,��
2019/09/09,05:00,0.756,1.065,0.737,1.308,0.975,0.427,0.742,0.700,���쓌,9.9,��
2019/09/09,05:10,0.756,1.066,0.736,1.306,0.975,0.426,0.742,0.699,���쓌,10.0,��
2019/09/09,05:20,0.757,1.068,0.737,1.310,0.976,0.427,0.744,0.701,��,10.5,�L
2019/09/09,05:30,0.755,1.065,0.737,1.309,0.975,0.426,0.744,0.701,��,10.2,�L
2019/09/09,05:40,0.756,1.064,0.737,1.309,0.976,0.427,0.743,0.700,��,11.4,�L
2019/09/09,05:50,0.754,1.063,0.735,1.310,0.977,0.426,0.742,0.701,��,10.9,�L
2019/09/09,06:00,0.754,1.061,0.733,1.309,0.973,0.427,0.741,0.701,��,10.8,�L
2019/09/09,06:10,0.755,1.060,0.732,1.307,0.974,0.426,0.743,0.700,��,11.6,�L
2019/09/09,06:20,0.751,1.059,0.732,1.306,0.973,0.425,0.741,0.701,��,11.8,�L
2019/09/09,06:30,0.753,1.054,0.733,1.305,0.972,0.424,0.741,0.700,��,11.9,�L
2019/09/09,06:40,0.751,1.054,0.731,1.308,0.970,0.425,0.741,0.701,��,12.0,�L
2019/09/09,06:50,0.750,1.050,0.730,1.308,0.969,0.424,0.740,0.700,���쓌,12.5,�L
2019/09/09,07:00,0.749,1.048,0.728,1.301,0.964,0.426,0.741,0.699,���쓌,11.7,�L
2019/09/09,07:10,0.749,1.046,0.727,1.304,0.964,0.424,0.741,0.698,���쓌,11.1,�L
2019/09/09,07:20,0.748,1.045,0.727,1.300,0.964,0.425,0.740,0.698,���쓌,10.5,�L
2019/09/09,07:30,0.748,1.048,0.727,1.301,0.962,0.425,0.741,0.698,��,8.6,�L
2019/09/09,07:40,0.749,1.044,0.728,1.301,0.963,0.424,0.738,0.695,��,8.6,�L
2019/09/09,07:50,0.747,1.046,0.725,1.297,0.963,0.424,0.738,0.696,��,9.4,�L
2019/09/09,08:00,0.743,1.041,0.721,1.294,0.956,0.422,0.735,0.693,��,8.1,�L
2019/09/09,08:10,0.729,1.010,0.706,1.255,0.921,0.411,0.721,0.682,���쓌,10.3,�L
2019/09/09,08:20,0.722,0.999,0.702,1.246,0.916,0.409,0.720,0.681,���쓌,4.3,�L
2019/09/09,08:30,0.707,0.985,0.693,1.227,0.902,0.407,0.714,0.674,-,CALM,�L
2019/09/09,08:40,0.698,0.971,0.683,1.205,0.881,0.381,0.703,0.664,�쓌,12.0,�L
2019/09/09,08:50,0.704,0.975,0.680,1.197,0.869,0.346,0.702,0.658,��,2.0,�L
2019/09/09,09:00,0.706,0.973,0.681,1.193,0.859,0.323,0.704,0.662,���k��,9.3,�L
2019/09/09,09:10,0.715,0.985,0.687,1.209,0.870,0.357,0.707,0.669,���k��,10.5,�L
2019/09/09,09:20,0.717,0.987,0.693,1.215,0.875,0.391,0.711,0.674,���k��,12.4,�L
2019/09/09,09:30,0.702,0.972,0.684,1.207,0.863,0.397,0.704,0.668,-,CALM,�L
2019/09/09,09:40,0.708,0.972,0.685,1.205,0.860,0.390,0.706,0.667,���k��,14.9,�L
2019/09/09,09:50,0.713,0.984,0.689,1.214,0.868,0.406,0.708,0.672,�k��,12.7,�L
2019/09/09,10:00,0.717,0.986,0.692,1.216,0.870,0.411,0.709,0.673,�k��,13.5,�L
2019/09/09,10:10,0.718,0.986,0.692,1.221,0.871,0.415,0.711,0.676,�k��,12.5,�L
2019/09/09,10:20,0.705,0.971,0.687,1.209,0.858,0.411,0.705,0.669,�k�k��,14.4,�L
2019/09/09,10:30,0.711,0.976,0.687,1.209,0.859,0.411,0.707,0.670,�k��,14.2,�L
2019/09/09,10:40,0.712,0.977,0.687,1.209,0.862,0.412,0.710,0.674,�k�k��,16.1,�L
2019/09/09,10:50,0.714,0.980,0.688,1.215,0.864,0.413,0.706,0.672,�k��,18.2,�L
2019/09/09,11:00,0.703,0.964,0.680,1.195,0.849,0.407,0.703,0.669,-,CALM,�L
2019/09/09,11:10,0.696,0.958,0.676,1.192,0.842,0.401,0.700,0.667,-,CALM,�L
2019/09/09,11:20,0.703,0.965,0.679,1.194,0.842,0.399,0.703,0.668,�k�k��,18.3,�L
2019/09/09,11:30,0.706,0.969,0.680,1.201,0.842,0.401,0.703,0.670,�k�k��,18.2,�L
2019/09/09,11:40,0.712,0.977,0.685,1.212,0.850,0.408,0.707,0.673,�k,22.1,�L
2019/09/09,11:50,0.713,0.979,0.685,1.209,0.849,0.410,0.706,0.675,�k�k��,18.6,�L
2019/09/09,12:00,0.716,0.982,0.685,1.213,0.851,0.409,0.708,0.673,�k,21.5,�L
2019/09/09,12:10,0.711,0.976,0.682,1.208,0.846,0.408,0.707,0.672,�k,19.9,�L
2019/09/09,12:20,0.712,0.978,0.685,1.206,0.848,0.408,0.704,0.671,�k,19.4,�L
2019/09/09,12:30,0.711,0.979,0.684,1.208,0.845,0.407,0.704,0.670,�k,18.6,�L
2019/09/09,12:40,0.714,0.981,0.685,1.212,0.846,0.408,0.705,0.671,�k,18.6,�L
2019/09/09,12:50,0.714,0.984,0.686,1.213,0.848,0.408,0.709,0.671,�k,16.8,�L
2019/09/09,13:00,0.716,0.987,0.686,1.219,0.854,0.409,0.708,0.674,�k,13.3,�L
2019/09/09,13:10,0.719,0.987,0.687,1.223,0.856,0.410,0.710,0.675,�k,16.8,�L
2019/09/09,13:20,0.719,0.991,0.687,1.229,0.858,0.410,0.712,0.676,�k�k��,14.9,�L
2019/09/09,13:30,0.721,0.995,0.689,1.231,0.858,0.409,0.713,0.676,�k,15.2,�L
2019/09/09,13:40,0.721,0.996,0.691,1.230,0.860,0.410,0.713,0.676,�k�k��,14.1,�L
2019/09/09,13:50,0.721,0.998,0.689,1.236,0.862,0.410,0.713,0.677,�k,13.5,�L
2019/09/09,14:00,0.723,0.997,0.692,1.238,0.861,0.411,0.713,0.679,�k�k��,13.1,�L
2019/09/09,14:10,0.722,0.995,0.690,1.239,0.862,0.410,0.716,0.677,�k�k��,15.5,�L
2019/09/09,14:20,0.722,0.996,0.691,1.239,0.863,0.410,0.715,0.678,�k�k��,13.5,�L
2019/09/09,14:30,0.724,0.997,0.689,1.241,0.864,0.411,0.715,0.678,�k�k��,12.2,�L
2019/09/09,14:40,0.722,0.997,0.691,1.240,0.864,0.411,0.717,0.677,�k�k��,11.6,��
2019/09/09,14:50,0.723,0.999,0.692,1.245,0.866,0.411,0.716,0.678,�k�k��,11.7,��
2019/09/09,15:00,0.723,0.996,0.691,1.243,0.868,0.410,0.718,0.678,�k�k��,13.5,�L
2019/09/09,15:10,0.725,0.997,0.690,1.244,0.869,0.411,0.718,0.678,�k�k��,11.4,��
2019/09/09,15:20,0.723,1.000,0.691,1.245,0.869,0.410,0.717,0.680,�k�k��,9.9,��
2019/09/09,15:30,0.725,1.000,0.693,1.247,0.870,0.411,0.719,0.678,�k��,11.7,��
2019/09/09,15:40,0.722,1.001,0.693,1.247,0.871,0.411,0.720,0.679,�k��,9.7,�L
2019/09/09,15:50,0.725,1.003,0.694,1.246,0.872,0.410,0.719,0.678,�k��,8.8,��
2019/09/09,16:00,0.723,1.004,0.695,1.249,0.874,0.409,0.718,0.679,�k��,9.4,��
2019/09/09,16:10,0.724,1.003,0.694,1.251,0.873,0.411,0.719,0.679,�k��,8.0,��
2019/09/09,16:20,0.724,1.004,0.697,1.251,0.874,0.411,0.722,0.681,�k��,6.6,��
2019/09/09,16:30,0.726,1.003,0.695,1.251,0.876,0.411,0.721,0.679,�k��,7.4,��
2019/09/09,16:40,0.723,1.005,0.696,1.253,0.879,0.410,0.720,0.680,�k�k��,8.2,��
2019/09/09,16:50,0.727,1.006,0.699,1.251,0.876,0.411,0.720,0.681,�k��,6.2,��
2019/09/09,17:00,0.727,1.009,0.699,1.253,0.879,0.412,0.720,0.682,�k�k��,7.8,��
2019/09/09,17:10,0.727,1.007,0.698,1.251,0.882,0.412,0.721,0.684,�k�k��,8.5,��
2019/09/09,17:20,0.727,1.011,0.700,1.253,0.882,0.412,0.722,0.683,�k�k��,8.0,��
2019/09/09,17:30,0.726,1.010,0.698,1.253,0.884,0.412,0.720,0.682,�k�k��,7.6,��
2019/09/09,17:40,0.727,1.008,0.699,1.253,0.884,0.413,0.723,0.682,�k�k��,7.4,��
2019/09/09,17:50,0.728,1.011,0.701,1.256,0.885,0.415,0.723,0.681,�k�k��,5.1,��
2019/09/09,18:00,0.726,1.011,0.700,1.257,0.883,0.413,0.723,0.683,�k��,3.5,��
2019/09/09,18:10,0.728,1.009,0.701,1.253,0.884,0.413,0.723,0.683,�k��,3.9,��
2019/09/09,18:20,0.727,1.010,0.702,1.255,0.886,0.415,0.724,0.683,�k��,6.3,��
2019/09/09,18:30,0.727,1.011,0.700,1.255,0.888,0.414,0.725,0.684,�k��,6.7,��
2019/09/09,18:40,0.727,1.011,0.699,1.256,0.887,0.415,0.722,0.684,�k��,5.3,��
2019/09/09,18:50,0.728,1.011,0.703,1.255,0.887,0.414,0.723,0.685,�k��,3.9,��
2019/09/09,19:00,0.728,1.011,0.701,1.259,0.889,0.414,0.724,0.685,�k��,3.6,��
2019/09/09,19:10,0.728,1.012,0.702,1.257,0.887,0.414,0.724,0.684,�k��,4.7,��
2019/09/09,19:20,0.727,1.012,0.700,1.256,0.889,0.416,0.724,0.685,�k��,6.2,��
2019/09/09,19:30,0.728,1.012,0.701,1.258,0.888,0.415,0.725,0.684,�k��,5.7,��
2019/09/09,19:40,0.730,1.012,0.701,1.256,0.888,0.414,0.724,0.685,���k��,5.3,��
2019/09/09,19:50,0.728,1.012,0.703,1.257,0.891,0.416,0.725,0.686,�k��,5.7,��
2019/09/09,20:00,0.726,1.009,0.701,1.258,0.890,0.414,0.724,0.686,���k��,5.3,��
2019/09/09,20:10,0.729,1.013,0.699,1.257,0.889,0.415,0.725,0.685,�k��,4.3,��
2019/09/09,20:20,0.728,1.013,0.701,1.258,0.891,0.416,0.724,0.685,�k��,3.2,��
2019/09/09,20:30,0.730,1.015,0.700,1.261,0.892,0.414,0.726,0.684,���k��,2.5,��
2019/09/09,20:40,0.729,1.011,0.702,1.262,0.893,0.415,0.724,0.684,��,2.3,��
2019/09/09,20:50,0.729,1.013,0.702,1.258,0.892,0.414,0.725,0.684,��,2.6,��
2019/09/09,21:00,0.729,1.016,0.702,1.260,0.895,0.415,0.724,0.685,�쐼,1.7,��
2019/09/09,21:10,0.730,1.013,0.701,1.259,0.893,0.413,0.725,0.686,�쐼,0.9,��
2019/09/09,21:20,0.729,1.015,0.700,1.258,0.893,0.415,0.726,0.683,��,2.9,��
2019/09/09,21:30,0.728,1.016,0.702,1.259,0.893,0.415,0.726,0.686,��,1.2,��
2019/09/09,21:40,0.730,1.015,0.704,1.260,0.894,0.415,0.724,0.685,�k��,1.7,��
2019/09/09,21:50,0.731,1.013,0.702,1.259,0.895,0.414,0.723,0.685,��,1.5,��
2019/09/09,22:00,0.731,1.017,0.703,1.259,0.894,0.414,0.725,0.685,���k��,0.9,��
2019/09/09,22:10,0.728,1.013,0.701,1.258,0.894,0.415,0.728,0.685,�k��,1.1,��
2019/09/09,22:20,0.728,1.014,0.703,1.259,0.896,0.415,0.725,0.685,-,CALM,��
2019/09/09,22:30,0.730,1.013,0.703,1.261,0.894,0.414,0.726,0.684,���쐼,0.8,��
2019/09/09,22:40,0.729,1.015,0.703,1.260,0.897,0.415,0.725,0.685,�k��,1.5,��
2019/09/09,22:50,0.730,1.013,0.704,1.258,0.896,0.415,0.724,0.686,�k��,0.8,��
2019/09/09,23:00,0.727,1.015,0.702,1.260,0.897,0.415,0.725,0.686,-,CALM,��
2019/09/09,23:10,0.729,1.015,0.703,1.260,0.895,0.416,0.725,0.685,�k��,0.9,��
2019/09/09,23:20,0.728,1.014,0.702,1.261,0.896,0.414,0.724,0.685,-,CALM,��
2019/09/09,23:30,0.729,1.015,0.702,1.261,0.896,0.416,0.723,0.686,�k��,1.2,��
2019/09/09,23:40,0.726,1.015,0.705,1.261,0.895,0.415,0.725,0.687,�k�k��,1.7,��
2019/09/09,23:50,0.730,1.015,0.702,1.260,0.897,0.415,0.725,0.687,�k��,5.1,��
